Hourly Data Report for September 10, 2017

All times are specified in Local Standard Time (LST). Add 1 hour to adjust for Daylight Saving Time where and when it is observed.

BATHURST A
NEW BRUNSWICK

47°37'47.000" N
65°44'20.000" W
58.80 m
8100505
71574
ZBF

Download Data

Hourly Data (September 2017)
Hourly Data Report for September 10, 2017
Temp Definition
°C
Dew Point Temp Definition
°C
Rel Hum Definition
%
Wind Dir Definition
10's deg

Wind Spd Definition
km/h
Visibility Definition
km
Stn Press Definition
kPa
Hmdx Definition


Wind Chill Definition


Weather Definition


TIME
00:00 Legend Double Dagger 8.4 8.0 97 27 3 16.1 101.83     LegendNANA
01:00 Legend Double Dagger 8.1 7.9 98 25 4 19.3 101.80     LegendNANA
02:00 Legend Double Dagger 7.8 7.6 98 36 1 24.1 101.79     Clear
03:00 Legend Double Dagger 7.1 6.8 98 23 4 19.3 101.77     LegendNANA
04:00 Legend Double Dagger 6.3 6.0 98 23 3 16.1 101.78     LegendNANA
05:00 Legend Double Dagger 5.5 5.2 98 24 4 16.1 101.80     Clear
06:00 Legend Double Dagger 5.4 5.0 97 25 6 24.1 101.83     LegendNANA
07:00 Legend Double Dagger 8.5 7.5 93 24 7 24.1 101.82     LegendNANA
08:00 Legend Double Dagger 9.9 8.1 88 0 1 24.1 101.81     Clear
09:00 Legend Double Dagger 13.2 10.3 82 9 4 24.1 101.81     LegendNANA
10:00 Legend Double Dagger 16.2 10.6 69 36 7 24.1 101.78     LegendNANA
11:00 Legend Double Dagger 17.8 9.4 57 2 5 24.1 101.71     Mostly Cloudy
12:00 Legend Double Dagger 16.7 10.4 66 2 9 24.1 101.69     LegendNANA
13:00 Legend Double Dagger 17.1 9.4 60 32 11 24.1 101.65     LegendNANA
14:00 Legend Double Dagger 17.2 10.0 63 31 10 24.1 101.59     Mostly Cloudy
15:00 Legend Double Dagger 16.6 8.0 57 31 12 24.1 101.52     LegendNANA
16:00 Legend Double Dagger 15.7 8.9 64 31 9 24.1 101.48     LegendNANA
17:00 Legend Double Dagger 15.0 8.8 66 30 12 24.1 101.46     Mostly Cloudy
18:00 Legend Double Dagger 14.1 8.5 69 27 7 24.1 101.43     LegendNANA
19:00 Legend Double Dagger 13.3 8.1 70 27 13 24.1 101.42     LegendNANA
20:00 Legend Double Dagger 13.3 8.1 71 28 13 24.1 101.39     Cloudy
21:00 Legend Double Dagger 13.3 8.6 73 28 11 24.1 101.34     LegendNANA
22:00 Legend Double Dagger 13.4 8.6 73 29 8 24.1 101.30     LegendNANA
23:00 Legend Double Dagger 13.6 8.8 73 36 3 24.1 101.25     Cloudy

Notes on Data Quality.

Legend

  • E = Estimated
  • M = Missing
  • NA = Not Available
  • ‡ = Partner data that is not subject to review by the National Climate Archives
Date modified: